Tesla Current Ratio 2010-2022 | TSLA

Current and historical current ratio for Tesla (TSLA) from 2010 to 2022. Current ratio can be defined as a liquidity ratio that measures a company's ability to pay short-term obligations. Tesla current ratio for the three months ending June 30, 2022 was 1.43.
Tesla Current Ratio Historical Data
Date Current Assets Current Liabilities Current Ratio
2022-06-30 $31.22B $21.82B 1.43
2022-03-31 $29.05B $21.46B 1.35
2021-12-31 $27.10B $19.71B 1.38
2021-09-30 $25.00B $18.05B 1.39
2021-06-30 $24.69B $16.37B 1.51
2021-03-31 $24.71B $14.88B 1.66
2020-12-31 $26.72B $14.25B 1.88
2020-09-30 $21.74B $13.30B 1.64
2020-06-30 $15.34B $12.27B 1.25
2020-03-31 $14.89B $11.99B 1.24
2019-12-31 $12.10B $10.67B 1.14
2019-09-30 $10.94B $10.15B 1.08
2019-06-30 $10.18B $9.59B 1.06
2019-03-31 $7.68B $9.24B 0.83
2018-12-31 $8.31B $9.99B 0.83
2018-09-30 $7.92B $9.78B 0.81
2018-06-30 $6.70B $9.14B 0.73
2018-03-31 $6.38B $8.65B 0.74
2017-12-31 $6.57B $7.68B 0.86
2017-09-30 $7.07B $6.47B 1.09
2017-06-30 $6.36B $6.55B 0.97
2017-03-31 $7.03B $6.25B 1.13
2016-12-31 $6.26B $5.83B 1.07
2016-09-30 $5.17B $4.08B 1.27
2016-06-30 $5.20B $3.77B 1.38
2016-03-31 $3.24B $3.19B 1.02
2015-12-31 $2.78B $2.81B 0.99
2015-09-30 $3.00B $2.55B 1.17
2015-06-30 $2.63B $2.38B 1.10
2015-03-31 $2.92B $2.19B 1.33
2014-12-31 $3.18B $2.11B 1.51
2014-09-30 $3.36B $1.84B 1.83
2014-06-30 $3.44B $1.58B 2.18
2014-03-31 $3.16B $1.41B 2.23
2013-12-31 $1.27B $0.68B 1.88
2013-09-30 $1.22B $1.17B 1.04
2013-06-30 $1.13B $0.49B 2.32
2013-03-31 $0.53B $0.54B 0.98
2012-12-31 $0.53B $0.54B 0.97
2012-09-30 $0.29B $0.39B 0.74
2012-06-30 $0.32B $0.29B 1.11
2012-03-31 $0.36B $0.24B 1.52
2011-12-31 $0.37B $0.19B 1.95
2011-09-30 $0.41B $0.15B 2.67
2011-06-30 $0.42B $0.14B 3.01
2011-03-31 $0.23B $0.11B 2.01
2010-12-31 $0.24B $0.09B 2.76
2010-09-30 $0.24B $0.07B 3.48
2010-06-30 $0.09B $0.07B 1.31
2010-03-31 $0.00B 0.00
2009-12-31 $0.00B 0.00
2009-09-30 $0.00B 0.00
2009-06-30 $0.00B 0.00
Sector Industry Market Cap Revenue
Auto/Tires/Trucks Auto Manufacturers - Domestic $775.267B $53.823B
Tesla is the market leader in battery-powered electric car sales in the United States, with roughly 70% market share. The company's flagship Model 3 is the best-selling EV model in the United States. Tesla, which has managed to garner the reputation of a gold standard over the years, is now a far bigger entity that what it started off since its IPO in 2010, with its market cap crossing $1 trillion for the first time in October 2021.? The EV king's market capitalization is more than the combined value of legacy automakers including Toyota, Volkswagen, Daimler, General Motors and Ford.Over the years, Tesla has shifted from developing niche products for affluent buyers to making more affordable EVs for the masses. The firm's three-pronged business model approach of direct sales, servicing, and charging its EVs sets it apart from other carmakers. Tesla, which is touted as the clean energy revolutionary automaker, is much more than just a car manufacturer.
Stock Name Country Market Cap PE Ratio
General Motors (GM) United States $52.198B 5.87
Ford Motor (F) United States $49.690B 6.75
Polaris (PII) United States $6.152B 13.16
Harley-Davidson (HOG) United States $5.553B 8.96
IAA (IAA) United States $4.590B 14.24
Fisker (FSR) United States $2.464B 0.00
Lion Electric (LEV) Canada $0.597B 0.00
Volta (VLTA) United States $0.215B 0.00
Lightning EMotors (ZEV) United States $0.119B 0.00
Bird Global (BRDS) United States $0.113B 0.00